Wind_Speed
27 28 30 34 38 40 44 47 46 42 41 39 38 40 40 40 41 43 45 47 49 51 51 52 52 52 53 52 52 51 49 48 47 46 46 45 45 45 44 44 44 43 43 43
28 29 31 32 35 38 42 45 46 45 43 41 40 41 41 40 40 41 43 45 47 49 50 50 50 50 51 51 51 51 50 49 47 46 45 45 44 45 45 45 44 44 43 43
26 27 29 31 32 35 41 43 46 46 44 42 41 41 40 40 41 41 42 44 46 47 48 49 49 49 49 49 49 49 49 49 48 46 46 45 45 45 45 44 44 43 42 42
24 26 27 28 29 33 37 40 43 45 44 44 42 41 41 41 41 41 42 45 46 47 48 48 48 49 49 48 48 48 48 47 47 47 45 44 43 43 42 42 42 41 41 41
23 25 26 28 28 30 34 37 40 43 44 44 45 44 43 42 42 43 44 45 45 46 47 48 48 48 48 47 47 47 47 46 45 44 44 43 42 42 41 40 39 39 39 39
22 23 25 27 27 28 32 36 39 40 43 43 44 46 45 44 44 44 45 46 45 45 46 47 47 47 46 46 46 45 45 45 44 43 42 42 41 40 40 39 38 37 37 36
23 23 25 27 28 28 32 34 37 39 41 43 45 44 45 46 45 45 46 46 46 45 45 46 47 47 46 45 45 44 44 43 42 42 41 41 40 40 39 38 37 37 36 36
24 25 25 26 27 29 31 34 36 39 40 42 44 45 45 46 48 47 47 46 47 46 46 46 47 47 46 45 45 44 43 42 41 41 40 40 39 38 37 36 36 35 35 35
26 26 26 27 28 29 30 32 34 37 39 40 42 44 45 46 47 48 48 48 48 47 47 47 47 47 47 46 45 44 43 42 41 40 39 39 38 37 36 35 35 34 34 34
26 27 28 29 30 31 32 33 34 35 37 39 41 42 44 45 46 47 48 50 49 48 49 48 47 47 47 46 45 44 43 42 41 40 39 39 37 36 35 34 34 33 33 33
26 26 28 29 31 32 33 34 35 36 37 39 41 42 43 44 46 46 47 48 49 49 50 50 48 48 48 47 45 44 43 41 41 39 38 38 36 35 34 33 33 32 32 32
26 26 28 28 30 32 33 34 35 36 37 38 40 41 42 43 46 47 47 47 48 49 49 50 49 49 48 47 46 45 43 42 41 40 39 37 35 34 33 32 32 31 31 31
27 28 29 29 29 31 33 34 35 36 37 38 39 41 42 43 45 47 47 47 48 48 49 49 49 49 48 48 47 46 44 43 41 40 39 37 35 34 33 32 32 32 31 30
28 29 30 30 30 30 31 33 34 36 37 37 39 41 42 43 44 45 46 47 47 48 49 48 48 48 48 47 46 46 45 43 42 40 38 37 36 34 34 33 32 32 31 31
26 26 27 29 30 31 31 31 33 35 36 37 39 40 41 42 43 44 45 46 46 47 48 48 48 47 47 47 46 45 44 43 41 39 38 37 36 35 34 33 33 32 31 31
25 26 26 27 29 30 31 31 31 32 34 36 37 39 39 40 42 43 44 45 45 45 46 47 46 46 46 47 46 45 44 42 41 39 38 38 36 35 34 34 33 32 32 32
23 23 24 25 27 29 30 31 31 31 31 32 34 37 38 38 40 41 42 43 44 45 44 44 45 45 46 46 46 45 44 43 42 41 39 38 37 36 35 34 33 32 32 33
21 22 22 21 23 26 28 29 29 29 30 31 32 34 35 37 38 39 41 42 43 44 43 43 43 43 44 45 45 44 44 43 43 42 40 39 38 37 36 35 34 33 33 33
19 20 20 21 22 23 25 28 29 29 30 31 31 32 33 34 36 38 39 40 41 42 42 43 43 43 43 43 43 43 43 42 41 41 40 39 38 37 36 35 34 34 33 33
18 18 18 19 20 22 24 26 28 29 30 31 31 32 33 33 34 35 37 38 39 40 41 42 42 42 42 42 42 42 42 41 40 39 38 37 37 36 36 35 34 34 33 33
17 17 18 18 18 19 22 24 26 28 30 31 31 32 32 33 34 35 35 36 37 38 39 39 39 40 40 40 40 40 39 39 38 37 36 36 35 35 35 34 33 33 32 32
17 17 17 17 17 18 20 23 25 27 29 30 31 31 32 33 34 34 34 35 36 36 37 37 37 38 38 37 38 37 37 36 36 35 35 34 34 34 33 33 32 32 31 31
16 16 15 14 14 15 18 20 23 25 27 29 29 30 31 31 32 32 32 32 33 33 34 35 36 36 36 35 35 34 34 34 34 33 33 32 32 31 31 30 30 30 30 29
15 15 14 13 13 13 15 18 21 23 26 28 29 29 30 30 30 30 30 30 30 31 32 33 34 34 33 33 32 32 32 32 32 32 32 31 30 30 29 28 28 28 28 28
13 14 13 12 12 12 13 15 18 21 24 26 28 29 29 29 29 28 28 28 28 28 29 30 31 31 31 30 30 30 30 31 31 31 30 30 29 29 28 27 27 27 27 27
10 11 12 11 11 12 13 15 17 19 22 25 27 27 27 27 28 28 28 28 27 26 27 29 29 28 28 28 28 29 29 29 30 29 29 28 28 27 26 26 26 26 27 27
9 9 10 10 11 13 14 15 17 19 22 24 26 26 26 27 28 28 27 27 26 26 26 27 28 28 28 27 27 27 28 28 28 28 28 27 26 25 24 24 24 25 26 26
Wind_Direction
236 233 231 229 226 225 223 222 221 220 223 222 219 223 225 225 225 226 226 226 227 228 228 228 229 231 231 232 234 235 237 237 238 239 241 243 245 247 250 252 254 257 260 263
239 236 236 232 228 227 223 223 222 222 223 224 221 223 226 225 222 224 225 225 226 226 226 227 228 229 230 231 233 235 237 238 239 239 240 242 244 247 249 252 254 257 259 262
244 241 239 234 228 227 223 223 225 225 224 224 224 223 225 224 223 224 224 224 225 226 227 226 226 227 229 230 231 233 235 237 238 240 242 243 245 246 249 251 254 256 259 261
247 241 241 238 234 230 226 224 226 227 226 227 226 225 225 226 225 224 223 223 224 225 226 226 226 226 227 228 230 232 233 236 238 240 242 244 246 248 250 252 254 256 258 260
248 242 242 238 236 233 229 225 224 225 225 227 226 226 227 228 227 225 223 222 222 222 223 224 225 225 226 227 228 230 232 235 237 240 242 244 246 248 250 251 253 255 257 259
248 243 241 237 235 234 232 231 225 225 224 226 226 225 225 225 224 221 221 221 220 220 221 222 223 224 225 226 227 229 231 233 235 238 241 243 245 247 248 250 252 255 257 259
248 245 242 237 235 233 232 230 228 225 223 224 224 224 222 221 220 220 220 220 219 219 220 220 221 223 224 226 227 228 230 232 234 237 239 242 244 246 248 250 252 254 257 260
246 245 245 239 235 233 232 230 229 226 225 225 224 223 222 220 219 218 219 219 218 218 219 219 220 222 223 225 226 227 229 231 233 235 238 240 243 245 247 250 253 256 258 261
244 244 243 242 238 234 232 230 228 227 227 226 225 224 222 222 221 219 219 218 217 217 218 218 219 220 222 224 226 227 229 230 232 234 237 239 241 244 247 251 254 257 260 262
245 244 243 242 240 238 235 231 229 228 226 226 227 226 225 223 223 221 219 218 218 217 217 218 218 220 221 223 224 226 227 229 232 234 236 238 241 244 247 251 255 257 259 261
247 245 245 242 240 239 237 234 231 230 229 228 227 226 225 223 223 221 219 219 219 218 217 218 219 220 220 222 224 226 228 230 233 234 235 237 240 243 247 250 253 256 258 260
252 246 246 243 239 239 238 236 233 231 230 229 227 226 224 223 223 222 221 220 220 221 220 219 220 221 221 223 224 226 228 230 233 234 235 237 240 243 246 249 252 254 257 260
253 249 247 246 243 241 239 237 235 232 231 229 227 226 225 224 224 224 223 222 222 222 222 221 221 222 224 225 225 226 228 230 232 234 236 238 240 242 245 248 251 254 257 261
255 253 250 246 243 240 240 238 236 234 231 229 227 226 224 223 223 224 223 222 223 223 222 221 222 223 225 226 226 227 228 230 232 234 237 238 240 242 245 248 251 254 257 260
255 255 253 249 243 240 240 239 237 234 232 229 227 226 224 222 222 222 223 223 223 223 222 222 223 224 225 227 227 227 228 230 230 232 235 238 240 242 245 248 251 253 257 260
257 255 253 249 244 241 240 239 237 234 232 230 227 225 224 224 223 223 222 222 222 222 222 223 223 224 225 226 227 228 228 229 230 232 235 238 240 243 246 248 251 254 257 261
262 257 254 250 246 243 240 238 235 233 231 228 225 223 222 221 221 220 221 221 221 221 221 222 223 223 224 226 227 228 228 229 231 233 236 238 240 243 246 249 252 255 258 261
264 258 255 252 247 242 237 234 232 230 228 226 224 221 219 218 218 218 219 220 221 220 221 222 222 222 223 224 225 227 228 229 232 234 235 238 240 243 245 249 253 256 258 262
267 262 260 255 248 242 236 231 229 227 226 224 222 220 218 218 218 218 219 220 220 219 220 221 221 220 221 223 225 226 227 228 230 233 235 238 240 243 246 249 253 256 258 261
270 265 262 258 251 244 235 229 226 224 223 222 220 218 217 216 217 217 219 219 218 217 217 218 218 219 221 222 223 224 225 227 229 232 234 237 240 243 246 249 253 255 257 260
273 267 263 258 251 243 234 227 223 222 221 219 217 216 215 215 214 215 215 215 214 214 215 215 216 217 218 220 221 223 224 226 228 231 233 236 239 243 245 248 251 253 256 259
275 269 265 258 250 242 235 228 222 220 218 216 214 213 212 210 211 212 211 211 211 212 213 213 214 215 217 218 219 221 223 226 227 229 231 235 239 242 245 247 250 253 256 260
274 267 261 255 248 241 234 227 222 218 215 212 210 208 207 206 206 207 208 209 210 211 212 213 213 213 215 216 218 220 222 224 226 228 231 235 239 242 244 247 251 255 258 262
271 262 255 253 250 242 234 226 219 216 211 207 205 203 202 201 201 202 204 207 208 209 211 211 211 211 212 214 216 219 221 223 226 229 231 234 237 240 243 247 251 255 259 262
267 257 251 248 246 237 225 214 207 205 204 201 200 198 197 197 198 200 202 204 205 206 206 206 206 207 210 213 216 218 221 224 226 228 230 233 236 240 243 247 251 255 259 263
267 255 244 239 233 219 207 201 198 198 198 197 197 196 196 197 198 199 200 201 203 204 205 205 206 208 211 213 215 218 221 223 224 225 229 233 237 240 242 246 251 257 261 264
260 248 237 231 220 210 204 200 197 196 194 193 193 193 194 195 197 197 198 200 204 205 205 206 207 208 211 212 214 217 219 221 223 226 230 233 235 238 243 249 256 260 264 267
Height
5449 5451 5455 5460 5465 5470 5477 5485 5494 5503 5510 5517 5523 5530 5537 5543 5550 5557 5565 5573 5581 5590 5598 5607 5615 5623 5631 5639 5646 5653 5659 5665 5672 5677 5682 5687 5691 5695 5699 5702 5705 5707 5709 5711
5444 5446 5449 5453 5458 5464 5471 5478 5486 5494 5501 5508 5514 5520 5527 5534 5541 5548 5556 5563 5571 5580 5588 5597 5605 5613 5621 5628 5636 5642 5649 5655 5661 5667 5672 5676 5681 5685 5688 5692 5695 5697 5699 5701
5438 5441 5443 5449 5454 5458 5464 5471 5477 5484 5493 5499 5505 5511 5518 5524 5532 5539 5546 5554 5562 5570 5579 5587 5595 5603 5610 5618 5625 5632 5638 5645 5651 5656 5661 5666 5671 5674 5678 5682 5684 5687 5689 5691
5432 5436 5439 5446 5448 5452 5457 5463 5469 5476 5484 5490 5496 5502 5509 5516 5523 5530 5538 5545 5553 5561 5569 5577 5585 5593 5600 5607 5615 5622 5628 5634 5640 5646 5651 5656 5660 5664 5668 5671 5674 5677 5679 5681
5426 5429 5432 5438 5441 5445 5450 5456 5461 5467 5474 5481 5486 5493 5500 5507 5514 5521 5529 5536 5544 5551 5560 5568 5575 5583 5590 5598 5605 5611 5618 5624 5630 5636 5641 5646 5650 5654 5658 5661 5664 5667 5669 5671
5420 5423 5426 5431 5435 5437 5443 5448 5453 5458 5465 5471 5477 5485 5493 5498 5505 5512 5520 5527 5535 5542 5550 5558 5566 5573 5581 5588 5595 5602 5608 5615 5620 5626 5631 5636 5640 5644 5648 5651 5654 5657 5659 5661
5415 5416 5419 5424 5428 5431 5437 5440 5444 5450 5456 5462 5468 5476 5483 5489 5496 5503 5511 5518 5526 5534 5541 5549 5556 5564 5571 5579 5586 5592 5599 5605 5610 5616 5621 5626 5630 5634 5638 5641 5644 5647 5649 5651
5408 5410 5415 5417 5420 5424 5427 5432 5437 5442 5448 5453 5460 5466 5473 5480 5487 5494 5501 5509 5517 5525 5533 5540 5547 5555 5562 5570 5576 5583 5589 5595 5601 5606 5611 5616 5621 5625 5628 5632 5635 5637 5639 5641
5402 5405 5407 5408 5411 5415 5419 5424 5428 5433 5439 5445 5451 5457 5464 5471 5478 5485 5492 5500 5507 5515 5523 5531 5538 5546 5553 5560 5567 5573 5580 5586 5592 5597 5602 5607 5611 5615 5619 5622 5625 5628 5630 5632
5394 5397 5400 5401 5404 5407 5411 5416 5420 5425 5430 5436 5442 5448 5455 5461 5468 5475 5483 5490 5498 5506 5513 5521 5529 5536 5544 5551 5558 5564 5571 5577 5583 5588 5593 5598 5602 5607 5610 5614 5616 5619 5621 5623
5387 5391 5392 5394 5396 5399 5403 5407 5412 5417 5422 5427 5433 5439 5445 5452 5459 5466 5473 5481 5488 5496 5504 5512 5519 5527 5534 5542 5549 5555 5562 5568 5574 5579 5584 5589 5593 5598 5601 5605 5607 5610 5612 5613
5380 5383 5384 5386 5388 5391 5394 5399 5403 5408 5413 5418 5423 5429 5436 5443 5450 5457 5464 5471 5479 5486 5494 5502 5510 5517 5525 5532 5540 5547 5553 5559 5565 5571 5575 5580 5584 5588 5592 5595 5598 5600 5602 5604
5372 5374 5375 5378 5380 5383 5386 5390 5394 5399 5404 5409 5414 5420 5426 5433 5440 5447 5455 5462 5470 5477 5485 5492 5500 5508 5515 5523 5530 5537 5544 5550 5556 5561 5566 5571 5575 5580 5583 5586 5589 5591 5593 5595
5364 5365 5367 5369 5371 5374 5377 5381 5384 5389 5394 5399 5405 5411 5417 5424 5431 5438 5446 5453 5460 5468 5475 5483 5491 5499 5506 5513 5520 5528 5534 5541 5547 5552 5557 5562 5566 5570 5574 5577 5580 5582 5584 5586
5356 5357 5358 5360 5363 5366 5369 5372 5375 5380 5384 5390 5395 5401 5408 5415 5422 5429 5436 5444 5451 5458 5466 5474 5482 5490 5497 5504 5511 5518 5525 5531 5538 5543 5548 5553 5557 5561 5565 5568 5571 5573 5575 5577
5349 5350 5351 5353 5355 5357 5360 5364 5367 5371 5375 5380 5386 5392 5398 5405 5412 5420 5427 5434 5442 5450 5457 5465 5472 5480 5487 5494 5501 5508 5516 5522 5528 5534 5539 5544 5548 5552 5556 5559 5562 5564 5566 5568
5341 5342 5344 5345 5347 5349 5352 5355 5358 5363 5367 5372 5377 5383 5390 5396 5403 5410 5417 5424 5432 5440 5447 5455 5463 5470 5477 5484 5492 5499 5506 5512 5518 5524 5529 5534 5539 5543 5546 5550 5553 5555 5557 5559
5335 5335 5336 5337 5338 5340 5343 5346 5350 5354 5359 5364 5369 5375 5382 5388 5395 5402 5408 5415 5423 5431 5438 5446 5453 5460 5467 5475 5482 5489 5496 5503 5509 5515 5520 5525 5529 5534 5537 5541 5544 5546 5548 5549
5328 5329 5329 5330 5331 5333 5335 5338 5342 5346 5351 5356 5362 5368 5374 5380 5386 5393 5400 5407 5414 5422 5429 5436 5443 5451 5458 5466 5473 5480 5487 5493 5499 5505 5511 5516 5520 5524 5528 5531 5534 5537 5539 5540
5323 5322 5323 5323 5324 5325 5328 5331 5334 5339 5344 5349 5355 5360 5366 5372 5379 5385 5392 5399 5406 5413 5420 5427 5435 5442 5450 5457 5464 5471 5477 5484 5490 5496 5501 5506 5511 5515 5519 5522 5525 5527 5529 5530
5316 5316 5316 5317 5317 5319 5321 5324 5328 5332 5337 5342 5348 5354 5360 5366 5372 5378 5385 5392 5399 5405 5412 5419 5427 5434 5441 5448 5455 5462 5469 5475 5481 5487 5492 5497 5502 5506 5510 5513 5515 5518 5519 5521
5310 5310 5310 5310 5311 5312 5314 5317 5321 5325 5330 5336 5341 5347 5354 5360 5366 5372 5379 5386 5392 5398 5405 5412 5420 5427 5434 5440 5447 5454 5460 5467 5473 5478 5484 5488 5493 5497 5501 5504 5506 5508 5510 5512
5304 5304 5304 5305 5306 5307 5309 5311 5315 5319 5324 5330 5336 5341 5348 5354 5360 5367 5374 5380 5386 5392 5399 5406 5413 5420 5427 5433 5440 5446 5452 5458 5464 5470 5475 5480 5484 5488 5492 5495 5497 5499 5501 5503
5299 5299 5299 5300 5301 5302 5304 5306 5310 5314 5319 5325 5331 5337 5343 5349 5356 5362 5369 5375 5381 5387 5393 5400 5406 5413 5420 5427 5433 5439 5445 5451 5457 5462 5467 5471 5476 5479 5483 5486 5488 5490 5492 5493
5295 5295 5295 5296 5296 5298 5300 5302 5306 5310 5315 5321 5327 5334 5340 5346 5353 5359 5365 5371 5377 5383 5389 5395 5401 5408 5414 5421 5427 5433 5438 5443 5449 5454 5459 5463 5467 5471 5475 5477 5480 5482 5483 5484
5291 5291 5291 5292 5293 5295 5298 5301 5304 5309 5314 5319 5325 5331 5337 5343 5349 5356 5362 5368 5374 5379 5385 5391 5397 5403 5409 5415 5421 5426 5432 5437 5442 5447 5451 5456 5460 5464 5467 5469 5471 5473 5475 5475
5288 5288 5289 5290 5291 5294 5296 5300 5304 5308 5313 5318 5324 5330 5335 5341 5347 5353 5359 5365 5371 5376 5381 5387 5393 5399 5404 5410 5415 5421 5426 5431 5435 5440 5445 5449 5453 5456 5459 5461 5463 5465 5466 5467